{"data":{"norad_id":63389,"epoch":"2026-09-20T11:23:23.022528Z","epoch_age_seconds":161015,"freshness":"FRESH","line1":"1 63389U 25063AC  26263.47457202  .00013062  00000+0  43169-3 0  9992","line2":"2 63389  53.1564 226.1632 0001356  94.7064 265.4092 15.31718679 84606","mean_motion":15.31718679,"eccentricity":0.0001356,"inclination_deg":53.1564,"raan_deg":226.1632,"arg_perigee_deg":94.7064,"mean_anomaly_deg":265.4092,"bstar":0.00043169,"rev_number":8460,"period_min":94.012041489245,"perigee_km":469.75561449421,"apogee_km":471.61301483474,"semimajor_km":6848.8213146645,"source":"CELESTRAK","updated_at":"2026-09-21T09:00:34.977451Z"}}